Voltar ao catálogo

TITAN 3C TRANSTAGE DEB

AtivoHEO
NORAD 5992·DEBRIS·🇺🇸 United States

Lançado Dec 21, 1965 de Cape Canaveral Space Force Station

Loading…

Próximas Passagens (próximas 24 horas)

TLE

AtualizadoSource: Space-Track

Época: Sep 13, 2026, 10:09 UTC

1 05992U 65108S   26256.42302054  .00000252  00000-0  28485-1 0  9993
2 05992  27.2841  46.4648 6637078 207.0282  92.2992  2.66187070 19269

Acompanhe TITAN 3C TRANSTAGE DEB em tempo real com AllMySat

Download on the App Store